TimePDT,TemperatureF,Dew PointF,Humidity,Sea Level PressureIn,VisibilityMPH,Wind Direction,Wind SpeedMPH,Gust SpeedMPH,PrecipitationIn,Events,Conditions,WindDirDegrees,DateUTC
12:35 AM,57.2,57.2,100,30.22,1.2,North,5.8,-,N/A,,Overcast,350,2012-10-14 07:35:00
12:55 AM,57.2,57.2,100,30.23,1.8,NNW,6.9,-,N/A,,Overcast,340,2012-10-14 07:55:00
1:15 AM,57.2,57.2,100,30.22,1.0,NNW,6.9,-,N/A,,Overcast,340,2012-10-14 08:15:00
1:35 AM,57.2,55.4,94,30.22,1.5,NNW,5.8,-,N/A,,Overcast,340,2012-10-14 08:35:00
1:55 AM,57.2,55.4,94,30.23,1.0,NNW,6.9,-,N/A,,Overcast,340,2012-10-14 08:55:00
2:15 AM,57.2,55.4,94,30.23,2.0,NNE,5.8,-,N/A,,Overcast,20,2012-10-14 09:15:00
2:35 AM,57.2,55.4,94,30.22,1.0,NW,3.5,-,N/A,,Overcast,320,2012-10-14 09:35:00
2:55 AM,55.4,55.4,100,30.22,1.0,NNW,3.5,-,N/A,,Overcast,340,2012-10-14 09:55:00
3:15 AM,55.4,55.4,100,30.21,0.5,WNW,3.5,-,N/A,Fog,Fog,300,2012-10-14 10:15:00
3:35 AM,55.4,55.4,100,30.20,0.8,Calm,Calm,-,N/A,,Overcast,0,2012-10-14 10:35:00
3:55 AM,55.4,55.4,100,30.19,1.0,Calm,Calm,-,N/A,,Overcast,0,2012-10-14 10:55:00
4:15 AM,55.4,55.4,100,30.19,1.0,Calm,Calm,-,N/A,,Overcast,0,2012-10-14 11:15:00
4:35 AM,55.4,55.4,100,30.19,2.5,North,4.6,-,N/A,,Overcast,10,2012-10-14 11:35:00
4:55 AM,55.4,55.4,100,30.19,1.0,NNW,3.5,-,N/A,,Overcast,340,2012-10-14 11:55:00
5:15 AM,55.4,55.4,100,30.20,3.0,NNW,4.6,-,N/A,,Overcast,340,2012-10-14 12:15:00
5:35 AM,55.4,55.4,100,30.20,2.0,North,4.6,-,N/A,,Overcast,350,2012-10-14 12:35:00
5:55 AM,55.4,55.4,100,30.20,1.5,North,4.6,-,N/A,,Overcast,350,2012-10-14 12:55:00
6:15 AM,55.4,55.4,100,30.20,1.8,North,3.5,-,N/A,,Overcast,360,2012-10-14 13:15:00
6:35 AM,55.4,55.4,100,30.21,5.0,NNW,4.6,-,N/A,,Overcast,330,2012-10-14 13:35:00
6:55 AM,55.4,55.4,100,30.21,5.0,North,5.8,-,N/A,,Overcast,360,2012-10-14 13:55:00
7:15 AM,55.4,55.4,100,30.21,5.0,North,3.5,-,N/A,,Overcast,360,2012-10-14 14:15:00
7:35 AM,55.4,55.4,100,30.21,2.5,NNE,3.5,-,N/A,,Overcast,20,2012-10-14 14:35:00
7:55 AM,55.4,55.4,100,30.22,0.5,NNW,5.8,-,N/A,Fog,Fog,330,2012-10-14 14:55:00
8:15 AM,55.4,55.4,100,30.22,0.5,NNW,4.6,-,N/A,Fog,Fog,340,2012-10-14 15:15:00
8:35 AM,55.4,55.4,100,30.23,0.5,North,4.6,-,N/A,Fog,Fog,360,2012-10-14 15:35:00
8:55 AM,55.4,55.4,100,30.23,0.8,North,4.6,-,N/A,,Overcast,350,2012-10-14 15:55:00
9:15 AM,55.4,55.4,100,30.24,0.8,NNW,9.2,-,N/A,,Overcast,330,2012-10-14 16:15:00
9:35 AM,55.4,55.4,100,30.23,0.5,NNW,5.8,-,N/A,Fog,Fog,340,2012-10-14 16:35:00
9:55 AM,55.4,55.4,100,30.23,1.5,NNW,8.1,-,N/A,,Overcast,330,2012-10-14 16:55:00
10:15 AM,55.4,55.4,100,30.24,4.0,NNW,11.5,-,N/A,,Overcast,340,2012-10-14 17:15:00
10:35 AM,55.4,55.4,100,30.24,7.0,NNW,11.5,-,N/A,,Overcast,340,2012-10-14 17:35:00
10:55 AM,57.2,55.4,94,30.23,9.0,NNW,11.5,-,N/A,,Overcast,340,2012-10-14 17:55:00
11:15 AM,59.0,55.4,88,30.23,10.0,NNW,10.4,-,N/A,,Mostly Cloudy,340,2012-10-14 18:15:00
11:35 AM,59.0,55.4,88,30.22,10.0,NNW,12.7,-,N/A,,Partly Cloudy,340,2012-10-14 18:35:00
11:55 AM,59.0,55.4,88,30.21,10.0,NNW,15.0,-,N/A,,Clear,330,2012-10-14 18:55:00
12:15 PM,60.8,55.4,82,30.21,10.0,NNW,16.1,-,N/A,,Clear,340,2012-10-14 19:15:00
12:35 PM,62.6,55.4,77,30.20,10.0,NNW,13.8,-,N/A,,Clear,330,2012-10-14 19:35:00
12:55 PM,60.8,55.4,82,30.19,10.0,NNW,17.3,-,N/A,,Clear,330,2012-10-14 19:55:00
1:15 PM,62.6,55.4,77,30.18,10.0,NNW,18.4,-,N/A,,Clear,330,2012-10-14 20:15:00
1:35 PM,60.8,55.4,82,30.17,10.0,NNW,17.3,-,N/A,,Clear,330,2012-10-14 20:35:00
1:55 PM,62.6,55.4,77,30.16,10.0,NNW,16.1,-,N/A,,Clear,330,2012-10-14 20:55:00
2:15 PM,62.6,55.4,77,30.15,10.0,NNW,15.0,-,N/A,,Clear,330,2012-10-14 21:15:00
2:35 PM,64.4,57.2,77,30.14,10.0,NNW,15.0,-,N/A,,Clear,330,2012-10-14 21:35:00
2:55 PM,64.4,57.2,77,30.14,10.0,NNW,12.7,-,N/A,,Clear,330,2012-10-14 21:55:00
3:15 PM,66.2,57.2,73,30.14,10.0,NNW,18.4,21.9,N/A,,Clear,330,2012-10-14 22:15:00
3:35 PM,64.4,57.2,77,30.13,10.0,NNW,13.8,-,N/A,,Clear,330,2012-10-14 22:35:00
3:55 PM,64.4,57.2,77,30.12,10.0,NNW,16.1,-,N/A,,Clear,340,2012-10-14 22:55:00
4:15 PM,64.4,57.2,77,30.12,10.0,NNW,12.7,-,N/A,,Clear,330,2012-10-14 23:15:00
4:35 PM,64.4,57.2,77,30.12,10.0,NNW,13.8,-,N/A,,Clear,330,2012-10-14 23:35:00
4:55 PM,62.6,57.2,82,30.12,10.0,NNW,15.0,20.7,N/A,,Clear,340,2012-10-14 23:55:00
5:15 PM,62.6,57.2,82,30.12,10.0,NNW,13.8,21.9,N/A,,Clear,340,2012-10-15 00:15:00
5:35 PM,59.0,55.4,88,30.11,10.0,North,12.7,19.6,N/A,,Clear,350,2012-10-15 00:35:00
5:55 PM,59.0,55.4,88,30.11,10.0,NNW,13.8,20.7,N/A,,Clear,340,2012-10-15 00:55:00
6:15 PM,59.0,55.4,88,30.11,10.0,NNW,11.5,19.6,N/A,,Clear,340,2012-10-15 01:15:00
6:35 PM,59.0,55.4,88,30.11,10.0,NNW,12.7,-,N/A,,Clear,340,2012-10-15 01:35:00
6:55 PM,59.0,57.2,94,30.11,10.0,North,12.7,19.6,N/A,,Clear,350,2012-10-15 01:55:00
7:15 PM,59.0,57.2,94,30.11,10.0,NNW,8.1,-,N/A,,Clear,340,2012-10-15 02:15:00
7:35 PM,57.2,57.2,100,30.11,10.0,North,15.0,21.9,N/A,,Scattered Clouds,350,2012-10-15 02:35:00
7:55 PM,57.2,57.2,100,30.11,5.0,North,13.8,20.7,N/A,,Overcast,360,2012-10-15 02:55:00
8:15 PM,57.2,57.2,100,30.12,1.0,North,13.8,18.4,N/A,,Overcast,350,2012-10-15 03:15:00
8:35 PM,57.2,57.2,100,30.13,0.5,North,12.7,20.7,N/A,Rain,Light Rain,350,2012-10-15 03:35:00
8:55 PM,57.2,57.2,100,30.13,1.5,North,11.5,19.6,N/A,Rain,Light Rain,360,2012-10-15 03:55:00
9:15 PM,57.2,57.2,100,30.13,1.8,North,11.5,17.3,N/A,,Overcast,350,2012-10-15 04:15:00
9:35 PM,57.2,57.2,100,30.13,2.5,North,10.4,-,N/A,,Overcast,360,2012-10-15 04:35:00
9:55 PM,57.2,57.2,100,30.13,2.5,NNW,8.1,-,N/A,,Overcast,340,2012-10-15 04:55:00
10:15 PM,57.2,57.2,100,30.13,1.0,North,6.9,-,N/A,,Overcast,350,2012-10-15 05:15:00
10:35 PM,57.2,57.2,100,30.13,0.5,NNW,5.8,-,N/A,Fog,Fog,330,2012-10-15 05:35:00
10:55 PM,57.2,57.2,100,30.12,5.0,Calm,Calm,-,N/A,,Overcast,0,2012-10-15 05:55:00
11:15 PM,57.2,57.2,100,30.11,9.0,Calm,Calm,-,N/A,,Overcast,0,2012-10-15 06:15:00
11:35 PM,57.2,55.4,94,30.11,0.8,NNE,5.8,-,N/A,,Overcast,20,2012-10-15 06:35:00
11:55 PM,57.2,57.2,100,30.11,0.5,North,4.6,-,N/A,Fog,Fog,350,2012-10-15 06:55:00